Weather History for Fairbanks, AK

Change the Weather History Date:

Monday, September 23, 2013

  Actual Average Record
Temperature  
Mean Temperature 32 °F 41 °F  
Max Temperature 41 °F 51 °F 72 °F (1940)
Min Temperature 23 °F 32 °F 7 °F (1992)
Degree Days  
Heating Degree Days 33 24  
Month to date heating degree days 463 424  
Since 1 July heating degree days 722 813  
Cooling Degree Days 0 0  
Month to date cooling degree days 0 0  
Year to date cooling degree days 226 61  
Moisture  
Dew Point 24 °F    
Average Humidity 72    
Maximum Humidity 89    
Minimum Humidity 31    
Precipitation  
Precipitation T in 0.03 in 0.29 in (1961)
Month to date precipitation 1.70 0.89  
Year to date precipitation 7.50 8.46  
Snow  
Snow T in 0.10 in 1.40 in (1924)
Month to date snowfall 0.7 1.0  
Since 1 July snowfall 0.7 1.0  
Since 1 September snowfall 0.7 1.0  
Snow Depth 0.00 in    
Sea Level Pressure  
Sea Level Pressure 29.73 in    
Wind  
Wind Speed 2 mph (WSW)    
Max Wind Speed 8 mph    
Max Gust Speed -    
Visibility 10 miles    
Events      
T = Trace of Precipitation, MM = Missing Value Source: NWS Daily Summary

Daily Weather History Graph

Daily Weather History Graph

Search for Another Location

Airport:

Trip Planner

Search our weather history database for the weather conditions in past years. The results will help you decide how hot, cold, wet, or windy it might be!

Date:

Astronomy

Sep. 23, 2013 Rise Set
Actual Time 7:38 AM AKDT 7:47 PM AKDT
Civil Twilight 6:49 AM AKDT 8:35 PM AKDT
Nautical Twilight 5:49 AM AKDT 9:35 PM AKDT
Astronomical Twilight 4:40 AM AKDT 10:42 PM AKDT
Moon 8:31 PM AKDT (9/23) 1:59 PM AKDT (9/23)
Length of Visible Light 13h 46m
Length of Day
12h 08m
Waning Gibbous, 80% of the Moon is Illuminated
Sep 23
Waning Gibbous
Sep 26
Last Quarter
Oct 4
New
Oct 11
First Quarter
Oct 18
Full

Hourly Weather History & Observations

Time (AKDT) Temp. Windchill Dew Point Humidity Pressure Visibility Wind Dir Wind Speed Gust Speed Precip Events Conditions
12:53 AM 30.0 °F 25.2 °F 26.1 °F 85% 29.55 in 10.0 mi WNW 4.6 mph - 0.00 in   Overcast
1:53 AM 28.9 °F 22.8 °F 25.0 °F 85% 29.57 in 10.0 mi WSW 5.8 mph - 0.00 in   Scattered Clouds
2:53 AM 28.9 °F - 25.0 °F 85% 29.59 in 10.0 mi Calm Calm - N/A   Scattered Clouds
3:53 AM 27.0 °F - 24.1 °F 89% 29.61 in 10.0 mi Calm Calm - N/A   Scattered Clouds
4:53 AM 26.1 °F - 23.0 °F 88% 29.63 in 10.0 mi Calm Calm - N/A   Scattered Clouds
5:53 AM 25.0 °F - 21.9 °F 88% 29.65 in 10.0 mi Calm Calm - N/A   Partly Cloudy
6:53 AM 24.1 °F - 21.0 °F 88% 29.67 in 10.0 mi Calm Calm - N/A   Scattered Clouds
7:53 AM 24.1 °F - 21.0 °F 88% 29.68 in 10.0 mi Calm Calm - N/A   Mostly Cloudy
8:53 AM 25.0 °F - 21.9 °F 88% 29.70 in 10.0 mi Calm Calm - N/A   Mostly Cloudy
9:53 AM 27.0 °F - 24.1 °F 89% 29.72 in 10.0 mi Calm Calm - N/A   Mostly Cloudy
10:53 AM 30.9 °F - 26.1 °F 82% 29.72 in 10.0 mi Calm Calm - N/A   Mostly Cloudy
11:53 AM 34.0 °F - 26.1 °F 73% 29.74 in 10.0 mi Calm Calm - N/A   Mostly Cloudy
12:53 PM 36.0 °F - 25.0 °F 64% 29.74 in 10.0 mi Calm Calm - N/A   Mostly Cloudy
1:53 PM 37.9 °F 34.4 °F 25.0 °F 60% 29.75 in 10.0 mi South 4.6 mph - N/A   Mostly Cloudy
2:53 PM 39.0 °F 34.8 °F 21.9 °F 50% 29.76 in 10.0 mi Variable 5.8 mph - N/A   Mostly Cloudy
3:53 PM 39.0 °F 33.4 °F 19.0 °F 45% 29.77 in 10.0 mi West 8.1 mph - N/A   Mostly Cloudy
4:53 PM 39.0 °F 34.8 °F 19.9 °F 46% 29.79 in 10.0 mi West 5.8 mph - N/A   Mostly Cloudy
5:53 PM 37.9 °F 32.7 °F 23.0 °F 55% 29.80 in 10.0 mi West 6.9 mph - N/A   Overcast
6:53 PM 37.0 °F 32.4 °F 24.1 °F 59% 29.82 in 10.0 mi West 5.8 mph - N/A   Mostly Cloudy
7:53 PM 36.0 °F - 24.1 °F 62% 29.83 in 10.0 mi Calm Calm - N/A   Mostly Cloudy
8:53 PM 34.0 °F - 27.0 °F 75% 29.85 in 10.0 mi Calm Calm - N/A   Mostly Cloudy
9:53 PM 34.0 °F 31.0 °F 25.0 °F 70% 29.86 in 10.0 mi SSW 3.5 mph - 0.00 in   Mostly Cloudy
10:53 PM 34.0 °F - 25.0 °F 70% 29.88 in 10.0 mi Calm Calm - 0.00 in   Mostly Cloudy
11:53 PM 33.1 °F - 24.1 °F 70% 29.90 in 10.0 mi Calm Calm - N/A   Mostly Cloudy